Temp
70 69 69 70 69 68 67 67 63 59 63 70 70 74 74 75 76 75 74 74 73 71 70 69 69 69 69 70 71 71 71 71 72 72 72 74 76 78
70 69 69 71 70 69 67 67 66 63 59 69 70 72 73 74 74 73 74 71 71 70 69 69 68 69 68 69 69 69 69 69 70 70 70 70 72 73
70 69 68 68 68 68 68 67 66 65 61 67 70 71 69 69 71 72 72 72 74 69 69 68 68 67 67 67 67 68 68 69 69 69 69 69 70 71
68 67 67 69 67 66 66 65 64 66 62 61 66 68 68 69 69 68 71 74 74 72 68 68 67 66 66 65 65 65 65 65 66 67 67 68 69 70
67 66 66 66 65 66 66 65 66 65 64 61 62 67 68 69 68 69 68 69 72 72 69 68 67 66 65 64 63 62 61 60 61 62 63 65 66 68
65 65 65 65 64 64 65 64 64 63 63 61 62 61 64 67 65 65 66 70 70 74 73 70 69 70 68 66 65 64 61 58 58 58 59 59 60 63
64 65 65 66 66 65 64 64 63 62 61 60 59 59 60 62 63 66 64 67 69 70 70 72 71 73 73 68 69 67 63 62 59 58 57 56 56 58
61 63 64 64 64 64 63 63 63 60 60 60 60 58 59 62 64 63 63 61 62 72 69 70 71 72 74 76 70 66 64 63 61 59 57 56 56 56
61 61 61 64 63 63 62 63 63 63 63 60 59 60 60 61 62 62 62 61 62 68 66 65 70 69 73 75 65 64 63 62 61 60 58 57 56 56
61 62 61 62 62 60 60 60 61 62 61 61 60 60 62 63 62 64 63 62 64 66 65 59 69 68 72 71 65 64 62 61 61 59 58 56 55 54
61 61 60 59 59 58 58 57 58 58 62 60 60 59 59 59 60 63 59 59 59 63 68 64 66 67 69 69 72 63 61 60 60 58 57 56 53 53
56 56 58 57 56 54 55 55 54 56 58 58 58 59 61 62 61 61 60 57 58 58 65 61 65 64 61 71 71 72 71 59 57 56 55 54 52 60
52 54 58 56 52 51 50 52 53 55 56 58 60 62 63 64 66 67 65 59 56 56 62 61 61 64 62 66 69 71 71 70 67 61 51 51 51 59
51 53 56 52 49 49 51 51 52 54 59 59 60 60 61 62 62 61 61 59 60 58 61 61 59 58 60 62 63 70 70 71 66 65 62 54 51 53
53 54 53 50 50 53 52 52 53 55 55 55 54 54 55 57 56 56 57 59 58 58 59 60 60 61 59 62 64 66 67 71 67 65 62 59 58 58
54 53 54 53 52 51 50 51 52 51 51 49 49 51 53 53 53 54 54 56 56 58 60 60 60 60 58 59 65 65 68 67 67 66 64 62 61 62
52 51 47 46 45 44 45 48 49 49 48 48 47 47 49 51 51 54 54 56 54 57 57 58 60 61 61 61 60 64 65 66 70 66 64 63 62 62
48 45 44 43 42 42 43 45 47 47 47 47 43 45 46 47 49 51 55 55 54 56 58 58 58 58 59 60 62 63 65 67 70 69 67 65 65 65
45 44 43 42 42 44 45 45 44 46 46 47 43 45 45 46 47 50 54 55 54 55 56 60 58 57 55 54 55 53 62 62 65 64 67 69 70 72
46 43 42 42 43 44 43 42 43 44 45 45 43 44 43 45 46 50 52 54 54 55 54 56 57 59 59 60 56 52 49 59 64 66 64 66 66 58
46 44 43 43 43 42 42 42 42 42 43 43 43 43 43 43 45 49 51 52 52 55 54 53 55 57 60 58 55 53 52 51 53 62 64 64 63 64
45 44 44 44 43 42 40 40 40 41 41 41 41 42 43 44 45 48 50 53 54 54 55 55 56 57 57 57 54 54 54 55 54 53 53 54 61 62
44 44 44 43 41 40 40 39 39 40 40 40 39 41 42 43 46 49 50 52 54 54 55 55 54 56 55 56 55 54 54 54 54 54 52 53 52 51
MSLP
1016.85 1016.79 1016.91 1016.75 1016.59 1016.38 1016.24 1016.13 1015.60 1014.17 1013.38 1012.88 1012.54 1012.12 1011.81 1011.59 1011.11 1010.75 1010.48 1010.08 1009.79 1009.50 1009.22 1009.02 1008.74 1008.52 1008.45 1008.40 1008.44 1008.45 1008.40 1008.43 1008.45 1008.46 1008.47 1008.40 1008.30 1008.32
1016.20 1016.31 1016.35 1016.13 1015.95 1015.73 1015.74 1015.55 1015.18 1014.43 1012.83 1012.65 1011.99 1011.74 1011.32 1010.86 1010.56 1010.22 1009.80 1009.54 1009.17 1008.90 1008.61 1008.30 1008.13 1007.82 1007.78 1007.74 1007.71 1007.65 1007.59 1007.65 1007.61 1007.64 1007.60 1007.55 1007.67 1007.67
1015.74 1015.82 1015.83 1015.64 1015.50 1015.41 1015.21 1014.88 1014.38 1013.89 1012.64 1011.75 1011.53 1011.05 1010.67 1010.46 1010.02 1009.61 1009.40 1008.90 1008.43 1008.17 1007.97 1007.72 1007.47 1007.23 1007.09 1007.00 1006.96 1006.85 1006.78 1006.75 1006.78 1006.81 1006.82 1006.88 1006.96 1007.04
1015.60 1015.65 1015.29 1015.17 1015.11 1014.78 1014.40 1013.84 1013.39 1013.01 1012.50 1011.09 1011.03 1010.55 1010.12 1009.86 1009.65 1009.18 1008.78 1008.23 1007.73 1007.23 1007.18 1006.98 1006.75 1006.53 1006.41 1006.27 1006.14 1005.99 1005.99 1005.89 1005.95 1005.94 1005.87 1006.10 1006.18 1006.31
1015.36 1015.16 1015.01 1014.86 1014.42 1013.95 1013.47 1013.07 1012.71 1012.25 1011.81 1010.91 1010.15 1010.16 1009.54 1009.36 1008.97 1008.65 1008.12 1007.53 1007.13 1006.62 1006.30 1006.13 1005.99 1005.72 1005.54 1005.41 1005.24 1005.10 1005.08 1005.03 1005.07 1005.06 1005.17 1005.40 1005.45 1005.64
1014.95 1014.85 1014.56 1014.20 1013.75 1013.22 1012.81 1012.40 1011.86 1011.38 1010.96 1010.37 1009.67 1009.57 1009.19 1008.79 1008.61 1008.09 1007.38 1006.89 1006.36 1006.04 1005.64 1005.44 1005.26 1004.97 1004.67 1004.52 1004.32 1004.10 1004.12 1004.26 1004.27 1004.28 1004.34 1004.41 1004.65 1004.85
1014.65 1014.38 1014.03 1013.65 1013.12 1012.66 1012.10 1011.48 1011.23 1010.76 1010.32 1009.73 1009.21 1009.06 1008.83 1008.39 1007.88 1007.31 1006.97 1006.46 1005.91 1005.70 1005.20 1004.77 1004.63 1004.33 1003.96 1003.69 1003.51 1003.31 1003.21 1003.31 1003.37 1003.40 1003.46 1003.60 1003.80 1003.92
1014.43 1013.91 1013.50 1012.79 1012.03 1011.57 1011.28 1011.07 1010.91 1010.29 1009.70 1009.16 1008.58 1008.22 1007.79 1007.72 1007.13 1006.94 1006.48 1006.11 1005.25 1005.00 1004.57 1004.03 1004.15 1003.60 1003.41 1003.19 1002.87 1002.76 1002.64 1002.55 1002.54 1002.50 1002.63 1002.73 1002.98 1003.22
1014.02 1013.29 1012.51 1012.13 1011.75 1011.29 1010.88 1010.51 1010.08 1009.73 1009.42 1009.03 1008.08 1007.34 1007.15 1006.85 1006.63 1006.35 1005.98 1005.60 1004.95 1004.59 1004.48 1003.26 1003.37 1002.75 1002.47 1002.23 1002.08 1002.00 1001.88 1001.81 1001.75 1001.76 1001.88 1002.10 1002.27 1002.58
1013.41 1012.97 1012.57 1012.02 1011.56 1011.34 1010.83 1010.12 1009.80 1009.35 1009.06 1008.62 1008.20 1007.46 1007.13 1006.68 1006.50 1005.95 1005.37 1004.74 1004.24 1003.96 1003.90 1002.69 1002.13 1001.52 1001.38 1001.25 1001.08 1001.02 1000.92 1000.90 1000.95 1001.00 1001.16 1001.42 1001.73 1002.02
1013.38 1012.83 1012.54 1011.90 1011.20 1011.04 1010.70 1010.19 1009.51 1008.64 1008.44 1008.11 1007.69 1007.23 1006.77 1006.27 1005.81 1005.61 1004.72 1004.06 1002.86 1002.24 1002.29 1001.73 1001.09 1000.75 1000.57 1000.15 1000.04 999.77 999.75 999.70 999.90 1000.10 1000.34 1000.75 1001.07 1001.48
1013.71 1012.75 1012.23 1011.90 1011.37 1011.05 1010.78 1010.39 1009.71 1008.86 1008.35 1007.50 1007.02 1006.45 1006.02 1005.39 1004.81 1004.64 1003.83 1002.88 1001.96 1000.79 1000.94 1000.61 1000.13 1000.40 999.56 998.47 998.45 998.41 998.74 998.84 999.09 999.28 999.54 999.96 1000.57 1001.18
1013.60 1012.65 1011.89 1011.50 1011.15 1010.71 1010.41 1010.16 1009.74 1008.93 1008.25 1007.59 1006.86 1006.08 1005.40 1004.71 1003.95 1003.28 1002.61 1001.82 1000.63 999.36 999.27 999.14 999.01 998.83 998.64 998.18 997.64 997.64 997.95 998.10 998.51 998.58 998.78 999.40 999.88 1000.25
1013.53 1012.81 1012.25 1011.73 1010.58 1010.36 1010.14 1009.90 1009.40 1008.77 1008.05 1007.41 1006.72 1005.91 1005.19 1004.36 1003.31 1002.16 1001.13 1000.17 999.09 997.90 997.29 997.77 997.49 997.71 997.65 997.60 997.40 997.10 997.19 997.44 997.84 998.07 998.52 999.05 999.52 999.87
1013.55 1013.03 1012.58 1012.19 1011.34 1010.65 1010.09 1010.17 1009.80 1009.25 1008.57 1007.87 1007.26 1006.41 1005.61 1004.46 1003.06 1001.38 999.84 998.13 996.92 995.72 995.38 995.71 995.99 996.36 996.81 996.70 996.72 996.84 997.00 996.88 997.37 997.64 998.21 998.77 999.01 999.53
1013.79 1013.20 1012.92 1012.58 1012.15 1011.45 1010.70 1010.63 1010.29 1009.80 1009.15 1008.50 1007.61 1006.61 1005.52 1004.10 1002.70 1001.02 999.15 997.40 995.86 994.27 994.19 994.34 994.84 995.51 996.06 996.50 996.60 996.68 996.73 996.59 996.66 997.06 997.72 998.35 998.62 998.79
1014.29 1013.94 1013.63 1013.31 1012.62 1011.84 1011.58 1011.27 1010.66 1009.97 1009.27 1008.82 1007.88 1006.80 1005.65 1004.33 1002.81 1000.85 998.78 997.09 995.77 994.38 993.72 993.75 994.14 994.72 995.43 995.83 996.17 996.29 996.41 996.49 996.55 996.75 997.32 997.62 998.02 998.21
1015.08 1014.78 1014.46 1014.11 1013.67 1013.04 1012.53 1011.66 1010.90 1010.28 1009.77 1009.18 1008.42 1007.49 1006.23 1004.90 1003.36 1001.13 998.78 997.38 995.90 994.51 993.33 992.95 993.54 994.12 994.69 995.30 995.75 995.96 996.12 996.18 996.10 996.34 996.69 996.88 997.01 997.36
1015.86 1015.66 1015.33 1014.85 1014.29 1013.65 1013.09 1012.44 1011.65 1010.96 1010.43 1009.62 1008.82 1007.81 1006.67 1005.37 1003.79 1001.81 999.59 997.96 996.50 995.28 993.79 992.36 993.13 993.72 994.13 994.69 995.78 996.47 996.13 996.17 995.95 996.09 996.18 996.22 996.06 996.06
1016.31 1016.06 1015.75 1015.43 1014.78 1014.22 1013.57 1012.87 1012.05 1011.27 1010.61 1010.03 1009.17 1008.16 1007.14 1006.08 1004.34 1002.55 1000.89 999.28 998.14 996.64 995.17 993.90 993.95 993.78 993.85 993.96 995.29 996.73 996.57 996.33 996.05 995.67 995.84 996.00 996.10 996.35
1016.57 1016.42 1016.16 1015.79 1015.35 1014.81 1014.21 1013.53 1012.81 1011.98 1011.22 1010.41 1009.58 1008.65 1007.63 1006.50 1004.97 1003.47 1001.95 1000.15 999.11 997.84 996.16 995.31 994.19 993.40 993.44 993.93 995.02 996.35 996.73 996.61 996.17 995.81 995.63 996.07 996.34 996.42
1017.16 1016.85 1016.39 1016.15 1015.83 1015.31 1014.62 1014.00 1013.22 1012.40 1011.55 1010.74 1010.06 1009.14 1008.00 1006.98 1005.72 1004.17 1002.70 1001.03 999.72 998.82 997.86 996.67 995.53 994.50 994.31 994.72 995.51 996.16 996.62 996.69 996.79 996.31 996.27 996.46 996.39 996.47
1017.84 1017.39 1017.00 1016.61 1016.17 1015.69 1015.10 1014.58 1013.91 1013.05 1012.29 1011.47 1010.69 1009.63 1008.45 1007.04 1005.95 1004.71 1003.36 1002.00 1000.73 999.60 998.61 997.83 997.13 996.43 996.22 996.23 996.56 997.07 997.18 997.15 997.11 997.10 997.33 997.50 997.04 997.08
Wind_Speed
6 6 6 7 5 6 7 7 9 12 13 10 8 7 7 7 11 10 10 13 16 15 13 15 14 13 13 12 13 13 14 15 16 16 16 18 20 17
5 6 7 7 6 6 6 7 8 11 13 10 10 11 10 9 10 11 11 14 15 15 15 15 15 14 13 13 14 14 15 16 17 18 18 15 15 14
6 7 9 9 7 7 7 7 8 9 13 11 10 11 10 10 11 9 10 11 10 13 15 16 16 15 14 13 15 16 17 17 17 17 16 15 16 15
8 8 10 8 9 9 8 10 8 9 10 17 11 11 12 10 10 12 10 10 10 13 13 16 17 16 15 15 16 16 15 16 15 15 16 16 16 17
8 9 10 10 10 9 10 9 9 8 9 12 11 9 11 9 10 9 10 10 9 16 15 16 16 16 15 16 16 16 16 15 15 15 15 15 16 17
8 9 10 10 11 12 11 11 10 9 10 11 11 9 8 8 7 10 10 8 9 10 11 11 13 15 16 15 17 16 15 14 15 16 16 15 16 17
10 10 9 12 19 15 10 12 12 11 10 10 11 9 7 8 11 8 8 10 10 9 10 9 8 8 8 10 15 14 13 14 15 16 16 15 16 15
10 11 10 15 14 19 19 20 16 13 14 11 11 10 9 9 9 9 9 9 10 5 8 8 4 8 9 9 10 13 13 13 13 13 14 14 14 14
11 12 12 11 17 16 19 20 17 17 15 13 12 9 9 9 9 11 11 9 11 10 9 14 8 11 10 11 13 15 15 14 14 12 12 13 14 14
13 13 13 14 14 14 14 12 13 12 11 9 10 12 9 9 9 12 13 13 12 10 10 13 10 12 10 9 14 17 17 16 15 14 12 13 13 14
13 14 14 15 20 17 13 12 14 14 11 13 13 14 16 18 18 10 11 10 12 12 10 13 12 13 10 11 10 17 20 19 17 15 13 14 13 12
13 13 16 14 17 14 10 10 12 12 11 10 9 10 10 13 16 11 11 12 13 14 12 13 12 10 8 9 11 10 8 13 15 14 13 14 13 7
9 10 10 17 15 14 14 7 8 9 13 9 9 9 9 9 9 12 15 14 16 16 14 11 11 13 12 8 3 4 5 4 4 4 10 12 16 11
10 9 10 21 18 12 7 9 11 10 7 7 8 8 9 10 12 15 18 18 17 20 18 16 13 12 11 10 9 4 5 5 4 3 4 6 11 13
8 9 14 13 13 10 14 13 11 7 8 8 9 9 10 12 16 18 18 17 18 18 15 17 12 13 8 9 8 6 6 4 4 3 4 5 6 6
11 7 11 10 10 10 11 9 7 7 7 8 8 9 10 11 13 14 14 13 13 7 8 12 15 12 8 8 10 9 7 6 2 4 4 4 5 6
8 6 7 8 9 11 9 8 7 7 9 9 10 10 11 12 14 16 13 12 11 9 4 6 11 11 10 9 6 7 7 8 7 4 4 4 5 6
6 7 8 8 8 8 9 10 8 11 9 10 9 9 11 12 13 15 15 13 12 10 6 6 7 6 6 7 10 6 7 9 8 7 6 5 5 6
6 7 8 8 9 9 9 9 10 9 11 9 9 10 11 11 16 13 14 14 16 14 12 1 6 5 7 6 3 8 8 6 6 5 7 8 8 7
5 6 7 8 8 9 9 9 9 10 10 10 10 10 10 11 12 13 14 16 13 13 12 11 6 2 7 7 4 2 6 5 8 6 4 4 0 5
6 6 5 7 8 9 9 9 11 10 11 11 10 10 11 11 12 12 13 19 14 13 16 13 11 9 4 6 5 3 5 11 6 3 3 4 3 3
7 7 7 8 9 9 9 10 10 11 11 11 11 11 10 10 11 13 12 13 12 11 11 10 12 10 9 6 6 6 3 4 8 16 16 10 1 4
8 7 9 9 8 8 10 10 11 11 11 12 11 11 11 11 11 11 11 11 11 10 11 12 11 10 12 10 8 6 8 5 3 7 11 13 16 16
Wind_Direction
258 269 258 258 245 261 266 266 284 299 298 297 289 273 264 269 276 277 273 280 282 282 280 282 277 261 253 250 251 247 244 245 249 250 250 250 249 231
269 266 277 279 264 260 254 259 260 275 289 297 289 282 278 280 265 273 276 272 272 269 273 274 272 265 255 247 249 251 250 247 246 249 248 242 230 224
292 288 281 280 279 269 263 257 261 269 282 288 283 286 273 271 278 273 274 279 276 260 263 269 272 269 265 257 250 252 249 248 245 241 243 237 230 227
293 279 285 291 280 271 262 262 266 270 277 289 293 290 277 277 271 279 277 275 278 274 250 257 262 265 260 259 253 255 246 246 244 240 239 237 229 231
284 287 286 283 283 284 281 278 274 274 276 286 292 285 286 284 281 274 276 275 268 273 268 254 257 263 257 253 252 254 250 247 243 241 244 234 227 227
284 279 282 283 285 288 284 283 281 280 285 282 286 282 278 285 273 282 282 279 283 285 278 272 271 265 261 252 253 252 247 239 242 241 237 230 223 221
299 291 287 288 298 290 298 301 296 290 286 282 281 278 271 276 274 283 275 282 283 280 275 273 272 275 267 261 266 259 249 243 240 235 233 227 220 216
301 300 301 309 313 315 313 308 299 294 287 283 279 266 262 263 272 270 275 279 286 267 273 275 267 273 278 277 264 257 255 254 249 238 233 228 220 216
310 317 324 323 317 312 309 303 298 292 280 295 302 302 292 267 266 278 273 266 269 274 280 279 268 264 262 266 249 258 260 254 251 240 225 225 219 214
326 318 310 304 298 299 304 301 304 299 297 286 275 279 283 288 276 274 278 275 276 265 251 265 268 260 261 250 240 248 252 252 250 242 224 219 212 208
318 314 312 304 301 306 302 302 300 300 301 292 286 284 279 273 267 285 275 269 269 264 245 252 258 266 257 258 251 233 241 241 241 237 214 209 201 197
308 305 304 298 302 310 315 310 303 299 309 315 310 294 281 283 273 256 266 265 272 271 254 245 248 247 258 230 238 241 247 237 240 234 215 203 178 179
303 306 310 316 309 306 307 288 270 284 298 294 294 298 297 293 298 299 288 279 274 263 248 245 243 234 226 258 230 207 221 236 233 219 194 188 179 186
302 303 309 321 317 305 309 344 318 306 300 302 312 310 304 297 302 300 291 281 266 261 260 245 231 228 223 220 234 231 247 236 207 204 173 159 183 206
307 308 317 332 3 349 17 359 343 343 338 338 326 313 313 301 298 300 302 286 279 263 250 231 224 218 224 227 228 238 250 222 199 177 166 176 169 186
331 337 352 347 349 7 12 353 348 350 346 337 322 313 309 306 308 311 311 308 308 277 232 217 213 210 211 216 234 235 242 235 194 169 155 168 176 190
340 12 7 1 356 11 351 341 341 346 356 344 332 327 320 316 315 320 321 323 318 300 233 199 204 201 207 210 215 223 233 235 237 185 157 181 193 194
20 13 9 4 356 351 338 341 345 350 347 336 328 322 320 319 316 317 330 344 336 343 281 194 187 187 187 210 204 228 228 244 228 206 204 207 223 195
30 14 5 354 349 345 342 342 336 337 331 334 324 323 323 322 323 319 332 347 356 351 344 84 168 177 181 190 111 31 240 249 217 198 211 219 233 220
32 19 359 345 345 343 343 341 337 336 339 337 327 328 328 325 324 324 329 334 347 348 1 6 5 228 196 185 134 69 15 247 246 230 195 222 7 56
18 2 355 348 346 339 341 343 340 337 333 335 333 331 328 331 327 329 328 327 337 350 2 1 347 346 109 108 104 91 51 41 41 264 149 191 190 182
9 353 352 354 352 345 346 346 341 342 339 340 337 331 329 328 324 327 331 333 343 343 352 0 6 25 48 55 83 101 102 63 53 63 57 45 251 167
1 356 0 358 354 346 352 349 345 342 343 337 331 330 328 329 327 325 327 339 341 345 350 7 14 26 37 42 54 65 58 45 50 70 61 54 67 70